Regional Weather Roundup
Issued by NWS

Home | Current Version | Previous Version | Graphics & Text | Print | Product List | Glossary On
Versions: 1 2 3 4 5 6 7 8 9 10 11 12 13 14 15 16 17 18 19 20 21 22 23 24 25 26 27 28 29 30 31 32 33 34 35 36 37 38 39 40 41 42 43 44 45 46 47 48 49 50
000
ASUS43 KTOP 302159
RWRKS

WEATHER ROUNDUP FOR KANSAS
NATIONAL WEATHER SERVICE GOODLAND KS
500 PM CDT MON MAY 30 2016

NOTE:  "FAIR" INDICATES FEW OR NO CLOUDS BELOW 12,000 FEET WITH NO
SIGNIFICANT WEATHER AND/OR OBSTRUCTIONS TO VISIBILITY.

KSZ001>006-013>018-027>032-041>047-302300-
NORTHWEST KANSAS

CITY           SKY/WX    TMP DP  RH WIND       PRES   REMARKS
GOODLAND       SUNNY     84  52  33 S21G28    29.86F
HAYS           SUNNY     82  55  39 S17G23    29.88F
HILL CITY      SUNNY     85  54  34 S15       29.86F
RUSSELL        SUNNY     81  60  48 S20G26    29.88F
$$

KSZ061>065-074>080-084>089-302300-
SOUTHWEST KANSAS

CITY           SKY/WX    TMP DP  RH WIND       PRES   REMARKS
DODGE CITY     SUNNY     82  54  37 S17       29.90F
ELKHART          N/A     83  57  41 S18         N/A
GARDEN CITY    SUNNY     83  50  31 S18G26    29.88F
GREAT BEND     SUNNY     81  59  47 S15G23    29.89F
LIBERAL        SUNNY     82  52  34 S16G23    29.91F
$$

KSZ066>073-081>083-090>101-302300-
SOUTHEAST KANSAS

CITY           SKY/WX    TMP DP  RH WIND       PRES   REMARKS
CHANUTE        MOSUNNY   77  61  57 SE14      29.98F
COFFEYVILLE    PTSUNNY   76  63  64 SE9       29.99F
HUTCHINSON     MOSUNNY   84  59  42 S20       29.91F
MEDICINE LODGE   N/A     84  55  36 S12       29.90F
NEWTON         SUNNY     81  59  47 S14       29.97F
PARSONS        PTSUNNY   75  64  68 SE10      30.00F
WICHITA INTL   MOSUNNY   82  58  43 SE14G24   29.92F
WICHITA JABRA  MOSUNNY   81  60  48 SE13G22   29.94F
WINFIELD       MOSUNNY   80  63  55 SE13      29.95F
$$

KSZ007>012-019>026-033>040-048>060-102>105-302300-
NORTHEAST KANSAS

CITY           SKY/WX    TMP DP  RH WIND       PRES   REMARKS
CONCORDIA      SUNNY     82  60  47 SW15G21   29.89F
EMPORIA        SUNNY     79  62  56 SE17      29.96F
LAWRENCE       PTSUNNY   78  66  66 S16       29.96F
MANHATTAN      MOSUNNY   85  61  44 S15       29.90F
OLATHE IND     CLOUDY    72  65  78 S14G23    30.00F
OLATHE EXE     CLOUDY    70  62  76 S14G23    30.00F
SALINA         SUNNY     84  62  47 S13       29.90F
TOPEKA BILLARD MOSUNNY   83  64  52 S14       29.93F
TOPEKA FORBES  CLOUDY    83  64  52 S16       29.94F
$$




USA.gov is the U.S. government's official web portal to all federal, state and local government web resources and services.